Location: Erfurt
(50.9688°N, 11.0193°E)
Time: 06:40:26
(UTC+01:00)

ISS - Pass Details

Date: 08 January 2018
Orbit: 402 x 407 km, 51.6° (Epoch: 18 January)

Event Time Altitude Azimuth Distance (km) Brightness Sun altitude
Exits shadow 05:06:13 16° 81° (E) 1,146 -0.8 -29.0°
Drops below altitude 10° 05:07:01 10° 82° (E) 1,470 -0.1 -28.9°
Sets 05:09:06 0° 84° (E) 2,332 1.3 -28.5°
